Regional Weather Roundup
Issued by NWS

Home | Current Version | Previous Version | Graphics & Text | Print | Product List | Glossary On
Versions: 1 2 3 4 5 6 7 8 9 10 11 12 13 14 15 16 17 18 19 20 21 22 23 24 25 26 27 28 29 30 31 32 33 34 35 36 37 38 39 40 41 42 43 44 45 46 47 48 49 50
353
ASUS43 KBIS 261210
RWRND

NORTH DAKOTA REGIONAL WEATHER ROUNDUP
NATIONAL WEATHER SERVICE BISMARCK ND
700 AM CDT WED APR 26 2017

NOTE: "FAIR" INDICATES FEW OR NO CLOUDS BELOW 12,000 FEET WITH NO
SIGNIFICANT WEATHER AND/OR OBSTRUCTIONS TO VISIBILITY.


NDZ001>003-009>011-017-261300-
NORTHWEST NORTH DAKOTA

CITY           SKY/WX    TMP DP  RH WIND       PRES   REMARKS
WILLISTON      FAIR      23  18  81 N6        29.95F WCI  16
6HR MIN TEMP:  23; 6HR MAX TEMP:  34;

MINOT          FAIR      26  20  77 NW9       29.93S WCI  17
MINOT AFB      MOCLDY    26  20  80 N8        29.93S WCI  17
$$

NDZ018>021-031>035-040>046-261300-
SOUTHWEST NORTH DAKOTA

CITY           SKY/WX    TMP DP  RH WIND       PRES   REMARKS
BISMARCK       FAIR      31  23  72 N12       29.88S
6HR MIN TEMP:  31; 6HR MAX TEMP:  37;

DICKINSON      CLOUDY    29  22  75 N7        29.87S
GARRISON         N/A     24  20  84 N10       29.91S WCI  14
6HR MIN TEMP:  24; 6HR MAX TEMP:  33;

HETTINGER ARPT CLOUDY    30  23  75 N7        29.88S
$$

NDZ004>008-012>016-024-026-027-054-261300-
NORTHEAST NORTH DAKOTA

CITY           SKY/WX    TMP DP  RH WIND       PRES   REMARKS
GRAND FORKS    CLOUDY    31  25  78 N24G32    29.82F WCI  17
GRND FRKS AFB  CLOUDY    29  23  78 NE20G29   29.83S WCI  17
DEVILS LAKE    CLOUDY    28  23  81 NE20      29.87S WCI  15
$$

NDZ022-023-025-028>030-036>039-047>053-261300-
SOUTHEAST NORTH DAKOTA

CITY           SKY/WX    TMP DP  RH WIND       PRES   REMARKS
FARGO          LGT SNOW  29  27  92 N20       29.75R FOG     WCI  16
6HR MIN TEMP:  29; 6HR MAX TEMP:  33; 6HR PCP:  0.10;

JAMESTOWN      CLOUDY    29  25  85 N20       29.80R WCI  16
$$





USA.gov is the U.S. government's official web portal to all federal, state and local government web resources and services.